User: anonymous   Login
Location: Caltech
(34.1382°N, 118.1253°W)
Time: 15:22:17
(UTC-07:00)
Language:

Cosmos 1758 Rocket - Orbit

View from above orbital plane
View from above orbital plane
View from above satellite
View from above satellite

Ground track
Ground track

The orbit data is extracted from the following two-line orbital elements,

1 16792U 86046B   17114.96548003 +.00000160 +00000-0 +16546-4 0  9991
2 16792 082.4826 252.4744 0025744 107.5578 003.5115 14.83127856645904
Epoch (UTC): 24 April 2017 23:10:17
Eccentricity: 0.0025744
inclination: 82.4826°
perigee height: 601 km
apogee height: 637 km
right ascension of ascending node: 252.4744°
argument of perigee: 107.5578°
revolutions per day: 14.83127856
mean anomaly at epoch: 3.5115°
orbit number at epoch: 64590

The dashed part of the orbit path shows where the satellite is in the earth's shadow,  

DLR